Weather History for South Lake Tahoe, CA

Change the Weather History Date:

Thursday, March 13, 2014

  Actual Average Record
Temperature  
Mean Temperature 40 °F -  
Max Temperature 57 °F 48 °F 69 °F (2013)
Min Temperature 24 °F 22 °F -3 °F (1990)
Degree Days  
Heating Degree Days 24 30  
Month to date heating degree days 402  
Since 1 July heating degree days 5639  
Cooling Degree Days 0 0  
Month to date cooling degree days 0  
Year to date cooling degree days 0  
Moisture  
Dew Point 14 °F    
Average Humidity 44    
Maximum Humidity 69    
Minimum Humidity 9    
Precipitation  
Precipitation 0.00 in - 2.00 in (1967)
Month to date precipitation  
Year to date precipitation  
Sea Level Pressure  
Sea Level Pressure 30.11 in    
Wind  
Wind Speed 3 mph (SSW)    
Max Wind Speed 8 mph    
Max Gust Speed -    
Visibility 10 miles    
Events      
T = Trace of Precipitation, MM = Missing Value Source: NWS Daily Summary

Daily Weather History Graph

Daily Weather History Graph

Search for Another Location

Airport:

Trip Planner

Search our weather history database for the weather conditions in past years. The results will help you decide how hot, cold, wet, or windy it might be!

Date:

Astronomy

Mar. 13, 2014 Rise Set
Actual Time 7:14 AM PDT 7:05 PM PDT
Civil Twilight 6:47 AM PDT 7:31 PM PDT
Nautical Twilight 6:16 AM PDT 8:02 PM PDT
Astronomical Twilight 5:45 AM PDT 8:33 PM PDT
Moon 4:36 PM PDT (3/13) 5:22 AM PDT (3/13)
Length of Visible Light 12h 44m
Length of Day
11h 50m
Waxing Gibbous, 92% of the Moon is Illuminated
Mar 13
Waxing Gibbous
Mar 16
Full
Mar 23
Last Quarter
Mar 30
New
Apr 7
First Quarter

Hourly Weather History & Observations

Time (PDT) Temp. Windchill Dew Point Humidity Pressure Visibility Wind Dir Wind Speed Gust Speed Precip Events Conditions
12:53 AM 28.9 °F 23.9 °F 15.1 °F 56% 30.16 in 10.0 mi SSW 4.6 mph - N/A   Clear
1:53 AM 28.0 °F - 16.0 °F 61% 30.14 in 10.0 mi Calm Calm - N/A   Clear
2:53 AM 27.0 °F 23.0 °F 16.0 °F 63% 30.14 in 10.0 mi SSW 3.5 mph - N/A   Clear
3:53 AM 27.0 °F 23.0 °F 15.1 °F 61% 30.12 in 10.0 mi South 3.5 mph - N/A   Clear
4:53 AM 26.1 °F - 15.1 °F 63% 30.12 in 10.0 mi Calm Calm - N/A   Clear
5:53 AM 24.1 °F 19.7 °F 15.1 °F 69% 30.13 in 10.0 mi SSW 3.5 mph - N/A   Clear
6:53 AM 25.0 °F 20.7 °F 15.1 °F 66% 30.13 in 10.0 mi Variable 3.5 mph - N/A   Clear
7:53 AM 24.1 °F 17.0 °F 15.1 °F 69% 30.16 in 10.0 mi SSW 5.8 mph - N/A   Clear
8:53 AM 30.0 °F 25.2 °F 17.1 °F 59% 30.17 in 10.0 mi South 4.6 mph - N/A   Clear
9:53 AM 39.9 °F - 17.1 °F 40% 30.13 in 10.0 mi Calm Calm - N/A   Clear
10:53 AM 46.9 °F - 16.0 °F 29% 30.11 in 10.0 mi Variable 4.6 mph - N/A   Clear
11:53 AM 51.1 °F - 16.0 °F 25% 30.08 in 10.0 mi NNE 8.1 mph - N/A   Clear
12:53 PM 51.1 °F - 12.0 °F 21% 30.09 in 10.0 mi Variable 4.6 mph - N/A   Clear
1:53 PM 54.0 °F - 10.0 °F 17% 30.06 in 10.0 mi Variable 6.9 mph - N/A   Clear
2:53 PM 55.0 °F - 3.9 °F 13% 30.05 in 10.0 mi Variable 6.9 mph - N/A   Clear
3:53 PM 57.0 °F - -0.0 °F 10% 30.04 in 10.0 mi North - - N/A   Clear
4:53 PM 57.9 °F - -2.0 °F 9% 30.02 in 10.0 mi Calm Calm - N/A   Clear
5:53 PM 51.1 °F - 10.9 °F 20% 30.04 in 10.0 mi Calm Calm - N/A   Clear
6:53 PM 46.9 °F - 17.1 °F 30% 30.06 in 10.0 mi Calm Calm - N/A   Clear
7:53 PM 41.0 °F - 23.0 °F 49% 30.11 in 10.0 mi Calm Calm - N/A   Clear
8:53 PM 37.0 °F - 21.9 °F 54% 30.12 in 10.0 mi Calm Calm - N/A   Clear
9:53 PM 34.0 °F - 21.0 °F 59% 30.12 in 10.0 mi Calm Calm - N/A   Clear
10:53 PM 32.0 °F 28.7 °F 21.0 °F 64% 30.12 in 10.0 mi SSW 3.5 mph - N/A   Clear
11:53 PM 32.0 °F - 19.0 °F 59% 30.10 in 10.0 mi Calm Calm - N/A   Clear